FW6629 Weather Reports


Display with metric or nautical units.
time (UTC)temp
F
wind
direction
speed
MPH
gust
MPH
rain 1hr
in
rain 24hr
in
rain mn
in
humidity
%
barometer
mb
20260902185024 97 104 4.0 7.0 0.00 0.00 0.00 49 1018.5
20260902184553 97 123 4.0 7.0 0.00 0.00 0.00 48 1018.5
20260902184024 97 67 4.0 7.0 0.00 0.00 0.00 49 1018.6
20260902183524 97 112 3.0 7.0 0.00 0.00 0.00 49 1018.6
20260902183108 96 123 3.0 8.0 0.00 0.00 0.00 49 1018.6
20260902182527 96 92 2.0 8.0 0.00 0.00 0.00 49 1018.6
20260902182025 96 117 4.0 8.0 0.00 0.00 0.00 50 1018.6
20260902181555 96 112 4.0 8.0 0.00 0.00 0.00 51 1018.7
20260902181023 96 84 2.0 6.0 0.00 0.00 0.00 52 1018.8
20260902180525 95 99 2.0 6.0 0.00 0.00 0.00 52 1018.9
20260902180051 96 120 1.0 4.0 0.00 0.00 0.00 52 1018.9
20260902175525 95 300 1.0 7.0 0.00 0.00 0.00 52 1019.0
20260902175025 95 360 3.0 8.0 0.00 0.00 0.00 49 1019.1
20260902174546 96 17 3.0 8.0 0.00 0.00 0.00 49 1019.2
20260902174025 95 327 2.0 5.0 0.00 0.00 0.00 49 1019.2
20260902173524 95 0 0.0 3.0 0.00 0.00 0.00 51 1019.4
20260902173045 95 2 1.0 3.0 0.00 0.00 0.00 52 1019.4
20260902172528 94 8 1.0 4.0 0.00 0.00 0.00 53 1019.4
20260902172024 94 312 1.0 4.0 0.00 0.00 0.00 52 1019.6
20260902171556 93 204 1.0 4.0 0.00 0.00 0.00 53 1019.6
20260902171026 93 292 2.0 4.0 0.00 0.00 0.00 54 1019.7
20260902170526 93 357 1.0 4.0 0.00 0.00 0.00 54 1019.7
20260902170048 94 344 1.0 4.0 0.00 0.00 0.00 54 1019.7
20260902165526 93 112 1.0 4.0 0.00 0.00 0.00 55 1019.9
20260902165026 94 60 0.0 4.0 0.00 0.00 0.00 55 1020.0
20260902164547 93 42 1.0 4.0 0.00 0.00 0.00 55 1020.1
20260902164027 93 94 1.0 4.0 0.00 0.00 0.00 56 1020.2
20260902163523 92 69 1.0 4.0 0.00 0.00 0.00 56 1020.2
20260902163058 93 27 1.0 3.0 0.00 0.00 0.00 56 1020.2
20260902162523 92 19 1.0 3.0 0.00 0.00 0.00 55 1020.3
20260902162025 92 17 1.0 4.0 0.00 0.00 0.00 58 1020.4
20260902161549 91 97 1.0 4.0 0.00 0.00 0.00 61 1020.3
20260902161029 92 44 1.0 4.0 0.00 0.00 0.00 60 1020.4
20260902160527 91 141 2.0 5.0 0.00 0.00 0.00 60 1020.4
20260902160045 91 34 1.0 5.0 0.00 0.00 0.00 59 1020.5
20260902155527 90 102 0.0 4.0 0.00 0.00 0.00 62 1020.5
20260902155029 90 90 1.0 4.0 0.00 0.00 0.00 63 1020.5
20260902154547 89 0 1.0 3.0 0.00 0.00 0.00 63 1020.5
20260902154023 89 92 1.0 3.0 0.00 0.00 0.00 64 1020.5
20260902153527 89 346 1.0 4.0 0.00 0.00 0.00 64 1020.5
20260902153055 89 82 1.0 4.0 0.00 0.00 0.00 63 1020.6
20260902152525 89 27 0.0 4.0 0.00 0.00 0.00 66 1020.8
20260902152027 87 9 1.0 4.0 0.00 0.00 0.00 66 1020.7
20260902151547 87 333 1.0 4.0 0.00 0.00 0.00 67 1020.7
20260902151025 87 21 1.0 4.0 0.00 0.00 0.00 67 1020.7
20260902150529 87 340 2.0 4.0 0.00 0.00 0.00 68 1020.6
20260902150047 87 352 0.0 2.0 0.00 0.00 0.00 69 1020.6
20260902145528 86 0 1.0 3.0 0.00 0.00 0.00 71 1020.6
20260902145026 85 321 1.0 3.0 0.00 0.00 0.00 75 1020.6
20260902144552 85 317 0.0 2.0 0.00 0.00 0.00 73 1020.6
20260902144027 85 77 1.0 3.0 0.00 0.00 0.00 74 1020.7
20260902143523 85 81 1.0 3.0 0.00 0.00 0.00 74 1020.6
20260902143049 84 360 1.0 3.0 0.00 0.00 0.00 75 1020.6
20260902142524 82 0 1.0 3.0 0.00 0.00 0.00 79 1020.6
20260902142025 81 69 0.0 2.0 0.00 0.00 0.00 81 1020.5
20260902141555 81 347 0.0 2.0 0.00 0.00 0.00 82 1020.5
20260902141027 80 0 0.0 2.0 0.00 0.00 0.00 83 1020.5
20260902140525 79 322 0.0 2.0 0.00 0.00 0.00 84 1020.5
20260902140046 79 353 0.0 2.0 0.00 0.00 0.00 84 1020.5
20260902135525 78 358 1.0 2.0 0.00 0.00 0.00 85 1020.5
20260902135025 78 331 0.0 2.0 0.00 0.00 0.00 87 1020.6
20260902134555 77 219 0.0 2.0 0.00 0.00 0.00 87 1020.5
20260902134023 77 0 0.0 2.0 0.00 0.00 0.00 88 1020.5
20260902133525 77 0 0.0 2.0 0.00 0.00 0.00 89 1020.5
20260902133048 76 334 0.0 2.0 0.00 0.00 0.00 89 1020.4
20260902132528 76 313 0.0 2.0 0.00 0.00 0.00 89 1020.5
20260902132024 75 292 0.0 2.0 0.00 0.00 0.00 90 1020.5
20260902131549 75 360 0.0 2.0 0.00 0.00 0.00 90 1020.4
20260902131026 75 0 0.0 2.0 0.00 0.00 0.00 91 1020.4
20260902130524 75 0 0.0 2.0 0.00 0.00 0.00 91 1020.4
20260902130048 74 117 1.0 2.0 0.00 0.00 0.00 91 1020.3
20260902125531 74 150 1.0 2.0 0.00 0.00 0.00 91 1020.3
20260902125028 74 159 0.0 2.0 0.00 0.00 0.00 91 1020.3
20260902124551 73 100 1.0 2.0 0.00 0.00 0.00 91 1020.3
20260902124028 73 101 1.0 3.0 0.00 0.00 0.00 91 1020.3
20260902123525 73 124 1.0 3.0 0.00 0.00 0.00 91 1020.2
20260902123056 73 135 2.0 3.0 0.00 0.00 0.00 92 1020.3
20260902122525 72 122 1.0 2.0 0.00 0.00 0.00 92 1020.3
20260902122025 72 98 1.0 2.0 0.00 0.00 0.00 92 1020.2
20260902121546 72 151 1.0 2.0 0.00 0.00 0.00 92 1020.3
20260902121025 72 143 1.0 2.0 0.00 0.00 0.00 92 1020.2
20260902120526 72 128 0.0 2.0 0.00 0.00 0.00 92 1020.1
20260902120043 71 115 0.0 2.0 0.00 0.00 0.00 92 1019.9
20260902115524 71 115 1.0 2.0 0.00 0.00 0.00 92 1019.8
20260902115024 71 0 0.0 2.0 0.00 0.00 0.00 92 1019.8
20260902114549 71 161 0.0 2.0 0.00 0.00 0.00 92 1019.7
20260902114023 71 117 1.0 2.0 0.00 0.00 0.00 92 1019.7
20260902113526 71 0 0.0 2.0 0.00 0.00 0.00 92 1019.6
20260902113046 71 117 1.0 2.0 0.00 0.00 0.00 91 1019.6
20260902112525 71 117 1.0 2.0 0.00 0.00 0.00 91 1019.6
20260902112025 71 127 0.0 2.0 0.00 0.00 0.00 91 1019.6
20260902111544 71 106 1.0 2.0 0.00 0.00 0.00 91 1019.6
20260902111025 71 121 1.0 2.0 0.00 0.00 0.00 91 1019.6
20260902110527 71 118 1.0 2.0 0.00 0.00 0.00 91 1019.5
20260902110047 71 153 0.0 2.0 0.00 0.00 0.00 91 1019.5
20260902105524 71 0 0.0 2.0 0.00 0.00 0.00 91 1019.6
20260902105024 71 161 0.0 2.0 0.00 0.00 0.00 91 1019.6
20260902104556 71 161 0.0 2.0 0.00 0.00 0.00 91 1019.5
20260902104023 71 161 0.0 2.0 0.00 0.00 0.00 91 1019.5
20260902103524 71 0 0.0 2.0 0.00 0.00 0.00 91 1019.4
20260902103048 71 161 0.0 2.0 0.00 0.00 0.00 91 1019.4
20260902102524 71 0 0.0 2.0 0.00 0.00 0.00 91 1019.3
20260902102025 71 111 0.0 2.0 0.00 0.00 0.00 91 1019.2
20260902101546 71 111 0.0 2.0 0.00 0.00 0.00 91 1019.2
20260902101025 71 111 0.0 2.0 0.00 0.00 0.00 91 1019.0
20260902100524 72 0 0.0 2.0 0.00 0.00 0.00 91 1019.0
20260902100047 72 0 0.0 2.0 0.00 0.00 0.00 91 1019.0
20260902095523 72 111 0.0 2.0 0.00 0.00 0.00 91 1019.0
20260902095024 72 111 0.0 2.0 0.00 0.00 0.00 91 1019.1
20260902094549 71 23 0.0 2.0 0.00 0.00 0.00 91 1019.0
20260902094023 72 23 0.0 1.0 0.00 0.00 0.00 91 1018.9
20260902093524 72 0 0.0 0.0 0.00 0.00 0.00 91 1018.8
20260902093050 72 0 0.0 0.0 0.00 0.00 0.00 91 1018.8
20260902092524 72 0 0.0 0.0 0.00 0.00 0.00 91 1018.9
20260902092026 72 0 0.0 1.0 0.00 0.00 0.00 90 1018.8
20260902091552 72 0 0.0 1.0 0.00 0.00 0.00 90 1018.8
20260902091023 72 23 0.0 1.0 0.00 0.00 0.00 90 1018.7
20260902090526 72 0 0.0 0.0 0.00 0.00 0.00 90 1018.7
20260902090048 72 0 0.0 0.0 0.00 0.00 0.00 90 1018.7
20260902085525 72 0 0.0 0.0 0.00 0.00 0.00 90 1018.7
20260902085024 72 0 0.0 0.0 0.00 0.00 0.00 90 1018.6
20260902084548 72 0 0.0 1.0 0.00 0.00 0.00 90 1018.7
20260902084025 72 0 0.0 2.0 0.00 0.00 0.00 90 1018.6
20260902083524 72 23 0.0 2.0 0.00 0.00 0.00 90 1018.5
20260902083045 72 0 0.0 0.0 0.00 0.00 0.00 90 1018.4
20260902082525 72 0 0.0 2.0 0.00 0.00 0.00 90 1018.4
20260902082028 72 0 0.0 2.0 0.00 0.00 0.00 90 1018.3
20260902081552 73 0 0.0 2.0 0.00 0.00 0.00 90 1018.4
20260902081027 73 42 0.0 2.0 0.00 0.00 0.00 90 1018.4
20260902080527 73 0 0.0 0.0 0.00 0.00 0.00 90 1018.3
20260902080047 73 0 0.0 2.0 0.00 0.00 0.00 90 1018.3
20260902075524 73 0 0.0 2.0 0.00 0.00 0.00 90 1018.3
20260902075025 73 0 0.0 2.0 0.00 0.00 0.00 90 1018.3
20260902074556 73 0 0.0 2.0 0.00 0.00 0.00 90 1018.3
20260902074029 73 121 0.0 1.0 0.00 0.00 0.00 90 1018.3
20260902073525 73 0 0.0 2.0 0.00 0.00 0.00 89 1018.3
20260902073053 73 0 0.0 2.0 0.00 0.00 0.00 89 1018.3
20260902072524 73 0 0.0 2.0 0.00 0.00 0.00 89 1018.4
20260902072024 73 121 0.0 2.0 0.00 0.00 0.00 89 1018.4
20260902071548 73 0 0.0 2.0 0.00 0.00 0.00 89 1018.5
20260902071028 73 0 0.0 0.0 0.00 0.00 0.00 89 1018.5
20260902070527 74 0 0.0 2.0 0.00 0.00 0.00 89 1018.5
20260902070049 74 0 0.0 2.0 0.00 0.00 0.00 89 1018.6
20260902065524 74 121 0.0 0.0 0.00 0.00 0.00 89 1018.5
20260902065026 74 0 0.0 0.0 0.00 0.00 0.00 89 1018.4
20260902064547 74 0 0.0 2.0 0.00 0.00 0.00 89 1018.5
20260902064025 74 0 0.0 2.0 0.00 0.00 0.00 89 1018.5
20260902063527 74 121 1.0 1.0 0.00 0.00 0.00 88 1018.5
20260902063041 74 0 0.0 1.0 0.00 0.00 0.00 88 1018.5
20260902062524 74 0 0.0 1.0 0.00 0.00 0.00 89 1018.5
20260902062023 74 0 0.0 1.0 0.00 0.00 0.00 89 1018.4
20260902061559 75 0 0.0 0.0 0.00 0.00 0.00 88 1018.4
20260902061025 75 0 0.0 0.0 0.00 0.00 0.00 88 1018.5
20260902060525 75 0 0.0 1.0 0.00 0.00 0.00 88 1018.5
20260902060057 75 0 0.0 2.0 0.00 0.00 0.00 88 1018.4
20260902055527 75 0 0.0 2.0 0.00 0.00 0.00 88 1018.6
20260902055026 75 123 1.0 2.0 0.00 0.00 0.00 88 1018.6
20260902054607 75 135 1.0 2.0 0.00 0.00 0.00 88 1018.5
20260902054026 75 134 1.0 2.0 0.00 0.00 0.00 88 1018.5
20260902053524 75 0 0.0 2.0 0.00 0.00 0.00 88 1018.6
20260902053059 75 118 0.0 2.0 0.00 0.00 0.00 88 1018.6
20260902052523 75 0 0.0 0.0 0.00 0.00 0.00 87 1018.6
20260902052024 75 0 0.0 1.0 0.00 0.00 0.00 87 1018.6
20260902051548 76 0 0.0 2.0 0.00 0.00 0.00 88 1018.6
20260902051026 76 118 0.0 3.0 0.00 0.00 0.00 88 1018.6
20260902050525 76 137 2.0 3.0 0.00 0.00 0.00 87 1018.6
20260902050049 76 141 1.0 2.0 0.00 0.00 0.00 87 1018.6
20260902045524 76 110 1.0 2.0 0.00 0.00 0.00 87 1018.6
20260902045025 76 115 1.0 2.0 0.00 0.00 0.00 87 1018.6
20260902044551 76 131 1.0 2.0 0.00 0.00 0.00 87 1018.7
20260902044026 76 0 0.0 2.0 0.00 0.00 0.00 87 1018.6
20260902043525 76 0 0.0 2.0 0.00 0.00 0.00 87 1018.6
20260902043045 76 170 0.0 2.0 0.00 0.00 0.00 87 1018.6
20260902042524 76 0 0.0 2.0 0.00 0.00 0.00 87 1018.6
20260902042024 76 179 0.0 2.0 0.00 0.00 0.00 87 1018.7
20260902041549 76 0 0.0 2.0 0.00 0.00 0.00 87 1018.7
20260902041025 77 127 1.0 3.0 0.00 0.00 0.00 87 1018.6
20260902040524 77 130 1.0 3.0 0.00 0.00 0.00 87 1018.5
20260902040052 77 122 1.0 2.0 0.00 0.00 0.00 87 1018.6
20260902035527 77 113 1.0 2.0 0.00 0.00 0.00 87 1018.7
20260902035024 77 168 0.0 2.0 0.00 0.00 0.00 87 1018.7
20260902034546 77 136 0.0 2.0 0.00 0.00 0.00 87 1018.7
20260902034029 77 0 0.0 2.0 0.00 0.00 0.00 87 1018.7
20260902033525 77 0 0.0 2.0 0.00 0.00 0.00 87 1018.7
20260902033043 77 136 1.0 1.0 0.00 0.00 0.00 87 1018.7
20260902032525 77 0 0.0 1.0 0.00 0.00 0.00 87 1018.8
20260902032028 77 0 0.0 2.0 0.00 0.00 0.00 87 1018.8
20260902031552 77 136 0.0 2.0 0.00 0.00 0.00 87 1018.8
20260902031025 77 110 1.0 2.0 0.00 0.00 0.00 87 1018.8
20260902030525 77 133 1.0 2.0 0.00 0.00 0.00 87 1018.7
20260902030045 77 0 0.0 2.0 0.00 0.00 0.00 87 1018.8
20260902025525 77 133 0.0 1.0 0.00 0.00 0.00 87 1018.8
20260902025029 77 127 1.0 1.0 0.00 0.00 0.00 87 1018.7
20260902024547 77 102 0.0 1.0 0.00 0.00 0.00 87 1018.6
20260902024023 78 0 0.0 0.0 0.00 0.00 0.00 86 1018.7
20260902023525 78 0 0.0 2.0 0.00 0.00 0.00 86 1018.7
20260902023050 78 0 0.0 2.0 0.00 0.00 0.00 86 1018.7
20260902022527 78 0 0.0 0.0 0.00 0.00 0.00 86 1018.7
20260902022027 78 0 0.0 0.0 0.00 0.00 0.00 85 1018.6
20260902021547 78 0 0.0 2.0 0.00 0.00 0.00 85 1018.5
20260902021024 78 0 0.0 2.0 0.00 0.00 0.00 84 1018.5
20260902020525 79 102 0.0 0.0 0.00 0.00 0.00 84 1018.5
20260902020046 79 0 0.0 2.0 0.00 0.00 0.00 83 1018.5
20260902015529 79 0 0.0 2.0 0.00 0.00 0.00 82 1018.5
20260902015027 79 0 0.0 1.0 0.00 0.00 0.00 82 1018.5
20260902014546 80 0 0.0 1.0 0.00 0.00 0.00 82 1018.3
20260902014029 80 102 1.0 2.0 0.00 0.00 0.00 82 1018.3
20260902013525 80 98 1.0 2.0 0.00 0.00 0.00 82 1018.3
20260902013056 80 98 0.0 2.0 0.00 0.00 0.00 82 1018.1
20260902012524 80 0 0.0 0.0 0.00 0.00 0.00 81 1018.0
20260902012024 80 0 0.0 0.0 0.00 0.00 0.00 81 1017.9
20260902011550 80 0 0.0 0.0 0.00 0.00 0.00 80 1018.0
20260902011024 81 0 0.0 1.0 0.00 0.00 0.00 80 1018.0
20260902010525 81 0 0.0 1.0 0.00 0.00 0.00 79 1018.0
20260902010046 81 0 0.0 1.0 0.00 0.00 0.00 78 1017.9
20260902005524 82 0 0.0 1.0 0.00 0.00 0.00 78 1017.9
20260902005024 82 98 0.0 1.0 0.00 0.00 0.00 77 1017.8
20260902004547 83 0 0.0 0.0 0.00 0.00 0.00 76 1017.8
20260902004024 83 0 0.0 0.0 0.00 0.00 0.00 75 1017.8
20260902003524 84 0 0.0 2.0 0.00 0.00 0.00 73 1017.8
20260902003051 84 0 0.0 2.0 0.00 0.00 0.00 72 1017.8
20260902002524 85 0 0.0 2.0 0.00 0.00 0.00 71 1017.9
20260902002024 85 0 0.0 1.0 0.00 0.00 0.00 71 1017.7
20260902001601 85 0 0.0 0.0 0.00 0.00 0.00 70 1017.8
20260902001024 86 0 0.0 0.0 0.00 0.00 0.00 69 1017.6
20260902000525 87 0 0.0 2.0 0.00 0.00 0.00 68 1017.6
20260902000045 87 0 0.0 2.0 0.00 0.00 0.00 66 1017.7
20260901235525 88 98 0.0 1.0 0.00 0.00 0.00 63 1017.8
20260901235024 88 98 1.0 2.0 0.00 0.00 0.00 61 1017.9
20260901234546 89 98 1.0 2.0 0.00 0.00 0.00 60 1018.0
20260901234025 89 98 1.0 2.0 0.00 0.00 0.00 59 1018.0
20260901233526 89 77 0.0 2.0 0.00 0.00 0.00 59 1018.1
20260901233044 90 96 0.0 2.0 0.00 0.00 0.00 60 1018.1
20260901232526 90 96 1.0 1.0 0.00 0.00 0.00 57 1018.3
20260901232024 91 109 1.0 2.0 0.00 0.00 0.00 55 1018.2
20260901231548 91 110 1.0 3.0 0.00 0.00 0.00 55 1018.2
20260901231026 92 103 1.0 3.0 0.00 0.00 0.00 54 1018.2
20260901230525 92 107 1.0 3.0 0.00 0.00 0.00 53 1018.1
20260901230045 93 98 1.0 3.0 0.00 0.00 0.00 51 1018.1
20260901225524 93 85 2.0 3.0 0.00 0.00 0.00 51 1018.1
20260901225028 94 110 2.0 3.0 0.00 0.00 0.00 50 1018.1
20260901224550 94 115 1.0 5.0 0.00 0.00 0.00 51 1018.0
20260901224028 94 106 1.0 5.0 0.00 0.00 0.00 51 1018.0
20260901223524 94 110 4.0 5.0 0.00 0.00 0.00 50 1018.0
20260901223051 95 121 2.0 4.0 0.00 0.00 0.00 48 1017.9
20260901222525 95 121 1.0 3.0 0.00 0.00 0.00 48 1017.9
20260901222026 94 74 1.0 3.0 0.00 0.00 0.00 47 1017.9
20260901221559 94 116 2.0 3.0 0.00 0.00 0.00 48 1017.9
20260901221025 95 86 1.0 4.0 0.00 0.00 0.00 49 1017.9
20260901220529 95 100 0.0 4.0 0.00 0.00 0.00 49 1017.8
20260901220052 95 68 2.0 5.0 0.00 0.00 0.00 48 1017.8
20260901215524 95 126 3.0 5.0 0.00 0.00 0.00 47 1017.7
20260901215026 95 123 2.0 5.0 0.00 0.00 0.00 47 1017.6
20260901214549 95 101 1.0 7.0 0.00 0.00 0.00 48 1017.6
20260901214025 95 127 2.0 7.0 0.00 0.00 0.00 47 1017.6
20260901213525 95 97 3.0 7.0 0.00 0.00 0.00 47 1017.7
20260901213044 95 79 1.0 6.0 0.00 0.00 0.00 47 1017.8
20260901212528 96 109 2.0 6.0 0.00 0.00 0.00 48 1017.8
20260901212026 95 192 2.0 5.0 0.00 0.00 0.00 47 1017.8
20260901211545 95 100 1.0 3.0 0.00 0.00 0.00 50 1017.8
20260901211025 95 298 1.0 5.0 0.00 0.00 0.00 47 1017.8
20260901210526 95 206 2.0 5.0 0.00 0.00 0.00 48 1017.9
20260901210047 95 77 2.0 9.0 0.00 0.00 0.00 49 1017.9
20260901205527 95 112 3.0 9.0 0.00 0.00 0.00 50 1017.9
20260901205030 95 144 2.0 6.0 0.00 0.00 0.00 48 1018.0
20260901204546 96 82 3.0 6.0 0.00 0.00 0.00 47 1017.9
20260901204025 96 89 2.0 5.0 0.00 0.00 0.00 45 1017.9
20260901203526 96 114 3.0 5.0 0.00 0.00 0.00 47 1018.0
20260901203055 96 102 2.0 5.0 0.00 0.00 0.00 47 1018.2
20260901202525 96 170 3.0 6.0 0.00 0.00 0.00 49 1018.2
20260901202026 95 138 3.0 6.0 0.00 0.00 0.00 48 1018.3
20260901201548 94 136 2.0 6.0 0.00 0.00 0.00 49 1018.4
20260901201031 94 95 2.0 5.0 0.00 0.00 0.00 48 1018.5
20260901200525 95 98 2.0 4.0 0.00 0.00 0.00 49 1018.4
20260901200107 96 107 0.0 3.0 0.00 0.00 0.00 47 1018.6
20260901195525 96 59 1.0 6.0 0.00 0.00 0.00 44 1018.4
20260901195024 96 37 1.0 6.0 0.00 0.00 0.00 47 1018.5
20260901194546 96 94 1.0 5.0 0.00 0.00 0.00 46 1018.6
20260901194028 94 36 0.0 5.0 0.00 0.00 0.00 48 1018.7
20260901193523 94 352 2.0 5.0 0.00 0.00 0.00 46 1018.8
20260901193052 94 39 1.0 3.0 0.00 0.00 0.00 47 1018.9
20260901192524 93 0 0.0 5.0 0.00 0.00 0.00 48 1018.9
20260901192025 94 115 2.0 7.0 0.00 0.00 0.00 49 1018.9
20260901191558 94 82 3.0 7.0 0.00 0.00 0.00 47 1019.0
20260901191027 95 103 3.0 7.0 0.00 0.00 0.00 47 1019.0
20260901190528 96 96 2.0 7.0 0.00 0.00 0.00 47 1019.0
20260901190043 96 58 2.0 7.0 0.00 0.00 0.00 49 1019.1
20260901185525 96 97 3.0 7.0 0.00 0.00 0.00 47 1019.1